Theta_e
344 341 340 341 346 341 342 344 349 345 346 348 350 353 352 351 349 350 348 348 348 345 346 347 347 347 345 345 346 345 342 337 331 333 337 341 344 347 346 347 348 343 345
345 344 341 340 343 346 345 342 348 347 351 351 350 354 352 352 351 350 348 349 348 347 347 347 347 351 347 347 346 344 342 343 336 335 338 340 342 345 347 347 352 354 351
345 345 344 339 340 344 347 345 341 348 348 353 352 352 353 352 351 352 351 349 348 349 349 348 348 348 347 346 347 345 344 345 343 340 342 343 346 348 347 345 346 348 354
345 345 345 344 340 340 346 344 344 343 346 349 353 352 352 353 352 352 351 349 349 349 351 350 351 350 349 348 348 347 348 348 346 344 342 343 344 346 344 343 343 343 346
345 344 345 347 346 340 340 345 343 343 346 349 351 353 353 353 353 351 351 350 348 348 349 351 352 352 348 347 350 348 348 347 346 345 344 342 344 343 342 343 343 343 344
346 346 345 347 348 346 341 341 342 343 347 348 350 352 351 355 341 340 348 350 350 349 348 349 351 349 347 341 341 342 348 348 347 345 347 346 346 341 341 341 341 338 340
347 347 348 346 347 348 348 343 342 340 341 347 350 352 352 354 336 336 341 350 351 351 350 349 349 354 347 351 342 337 337 337 341 350 347 347 343 343 342 340 341 341 342
345 349 350 350 348 348 348 349 347 346 340 343 347 348 352 353 335 333 337 350 349 349 352 351 350 350 348 348 348 348 348 347 342 342 344 347 348 348 346 348 347 345 347
342 347 352 352 351 350 348 348 350 349 346 342 347 351 349 350 331 330 334 347 350 348 348 352 352 351 341 334 347 346 347 348 344 333 334 334 334 334 339 343 344 344 343
339 342 348 353 352 351 351 351 351 351 350 348 345 346 346 353 332 328 332 350 345 345 347 346 335 346 333 329 345 347 345 347 346 341 342 337 332 338 333 340 345 342 343
334 340 344 351 353 353 353 353 352 352 351 350 349 348 348 350 351 325 324 353 351 347 345 344 347 328 324 321 325 347 345 346 344 345 347 346 348 350 351 347 343 346 342
330 332 338 351 353 354 353 353 353 352 350 349 350 351 352 353 335 327 322 326 343 352 349 348 346 325 319 318 320 326 324 326 339 340 342 345 347 348 350 350 351 345 349
326 330 337 351 353 353 352 352 351 352 350 349 349 349 350 353 354 326 321 321 324 346 354 344 330 321 316 320 319 322 319 329 334 338 341 344 347 349 348 349 352 354 353
322 326 330 348 350 351 353 354 352 351 351 350 349 349 350 351 353 356 342 332 324 329 337 345 337 330 326 331 329 324 325 330 334 336 339 342 342 345 347 350 349 349 350
321 324 325 350 349 351 352 353 353 354 350 352 352 352 350 350 351 342 345 351 348 339 339 347 342 334 338 338 338 339 336 331 333 336 337 339 343 347 349 350 350 350 350
318 324 322 328 351 354 352 353 316 324 321 319 323 341 353 334 324 318 316 316 318 315 333 347 345 346 344 346 347 347 345 341 342 342 343 345 347 348 348 351 352 351 349
315 321 323 325 336 352 352 353 350 331 313 311 312 314 317 330 311 310 313 309 304 316 346 343 346 345 346 347 347 347 345 345 347 346 346 348 350 350 346 352 350 348 346
313 316 322 325 330 334 347 351 350 351 349 345 310 314 308 305 303 303 304 311 322 322 345 347 345 346 347 347 347 347 348 347 346 351 351 352 351 350 346 347 347 346 340
311 316 320 324 329 330 336 346 347 346 347 351 327 312 304 301 303 301 305 339 334 333 338 344 344 344 346 347 349 351 351 351 350 350 350 350 350 350 349 348 347 326 331
314 318 318 326 330 331 335 343 346 344 342 342 337 334 324 326 336 337 336 338 338 338 340 341 338 332 326 325 331 339 340 337 341 342 338 340 346 345 344 345 345 345 340
311 312 314 318 319 320 327 330 336 337 332 324 322 325 314 338 328 322 318 315 316 316 322 318 316 316 318 319 322 325 327 326 328 331 332 329 330 342 342 342 344 341 340
307 308 309 308 310 310 311 319 319 320 320 317 315 312 310 318 315 309 307 306 307 306 306 306 306 306 307 311 309 313 316 317 316 319 325 326 327 332 338 339 340 340 339
302 304 303 304 304 305 306 305 308 309 307 307 309 309 309 309 305 306 304 303 303 302 300 300 300 299 300 300 301 301 302 304 306 309 313 318 322 326 328 330 331 333 332
298 298 299 299 299 299 301 301 302 300 302 301 300 300 301 301 302 300 299 299 297 296 297 296 296 295 296 296 296 297 296 297 303 308 315 320 323 320 321 324 326 327 326
296 295 295 295 296 295 296 296 297 296 297 298 297 297 296 297 296 295 295 294 294 294 293 293 294 293 293 292 292 291 288 287 295 298 313 314 310 310 313 315 314 318 319
294 294 294 294 294 295 293 293 293 293 295 294 293 295 295 295 294 294 293 293 293 293 292 292 292 292 292 291 290 288 286 286 292 292 304 305 303 302 305 306 308 308 308
Wind_Speed
18 17 15 13 8 7 7 7 7 7 8 8 10 10 10 8 7 6 6 6 6 5 3 4 6 3 3 2 2 1 1 3 2 4 2 2 3 4 6 5 5 6 7
19 17 16 14 13 8 9 8 7 7 7 8 10 11 10 9 7 8 7 6 7 6 6 5 6 3 4 3 2 3 2 1 2 4 2 3 4 4 5 6 6 5 5
18 17 16 16 16 16 12 7 7 7 8 7 8 11 12 11 9 8 8 7 7 7 7 7 7 5 6 3 3 4 2 2 2 2 4 2 4 2 4 3 4 5 4
17 18 18 17 17 17 16 10 8 9 8 8 9 10 10 10 10 9 8 7 7 7 7 6 7 7 7 6 5 6 4 4 3 3 4 4 3 3 2 3 5 2 5
19 17 17 16 16 15 17 16 12 8 11 9 9 9 10 10 9 10 9 8 8 7 7 7 7 8 11 9 5 6 5 4 4 4 4 2 4 3 3 3 5 4 5
18 18 16 15 16 16 16 16 15 14 11 8 10 12 10 9 12 14 11 8 8 8 9 7 7 8 10 13 13 12 8 6 6 4 5 7 8 4 3 4 4 3 6
16 16 16 18 18 18 16 16 16 16 16 13 12 12 13 13 15 16 16 9 9 9 9 8 6 8 9 7 9 12 12 14 13 7 8 8 6 5 4 4 5 4 5
6 16 17 17 18 17 17 17 16 15 16 15 15 14 13 11 14 16 16 12 9 11 11 11 10 10 8 8 7 8 9 8 9 8 11 14 11 9 6 9 7 5 4
4 10 17 17 18 18 19 18 16 14 14 15 14 14 15 15 16 17 13 10 12 11 10 11 12 12 12 14 9 9 10 10 8 12 13 13 14 14 11 1 6 5 6
6 5 6 14 18 19 20 18 16 15 15 13 15 15 15 15 15 18 15 10 11 10 9 10 15 15 13 14 11 10 11 15 10 6 6 7 10 9 13 8 6 6 5
12 9 11 16 19 20 18 15 15 15 14 15 15 14 15 14 15 19 20 14 11 10 10 9 10 16 17 15 16 11 14 12 11 6 6 5 5 6 5 5 7 7 5
14 13 14 18 17 15 17 16 15 15 15 15 14 12 12 13 15 16 19 21 16 13 11 10 11 15 17 18 11 17 17 11 6 6 6 8 7 6 6 6 7 8 8
13 11 13 12 16 17 17 16 14 14 13 13 12 12 11 10 11 18 20 21 21 12 12 13 12 13 14 12 17 16 7 5 7 8 10 10 9 8 5 5 5 6 6
15 13 12 13 13 14 12 13 13 13 14 13 12 12 11 10 10 10 9 9 16 12 13 10 9 8 9 10 6 6 5 7 7 8 8 8 3 3 5 5 4 3 3
12 11 13 12 11 12 13 14 15 17 16 14 12 11 11 11 12 13 11 10 10 13 11 9 4 3 6 6 5 5 4 4 6 6 7 7 6 5 6 4 4 3 5
12 8 8 10 8 10 11 11 5 8 17 16 15 14 11 13 13 15 14 16 17 13 4 8 8 10 9 10 10 10 8 10 10 9 8 8 8 6 6 5 4 4 4
10 10 9 9 7 6 8 10 11 1 6 10 15 15 14 11 14 13 17 13 3 10 8 8 9 9 10 10 9 9 10 9 9 8 9 8 7 6 5 6 4 3 4
12 13 8 9 6 5 4 6 6 9 12 7 3 7 11 9 4 5 11 12 3 5 9 9 10 10 9 9 8 8 8 7 8 8 7 7 6 5 5 5 4 4 4
9 8 9 8 7 6 4 5 5 5 7 7 3 2 7 13 13 12 12 4 5 5 7 6 5 5 5 5 5 5 6 6 6 6 6 6 6 5 6 6 5 6 5
7 10 10 7 5 5 4 4 4 4 4 4 4 3 7 6 5 4 2 2 2 3 1 2 2 3 4 3 2 3 5 6 6 7 9 8 9 5 5 5 4 5 5
6 7 12 6 6 6 6 6 4 5 6 5 3 2 5 5 6 7 7 6 6 6 6 7 7 6 5 5 2 2 4 6 9 4 2 1 9 13 5 5 2 3 4
6 6 6 6 6 7 8 6 7 7 9 8 7 12 13 7 8 8 7 8 7 7 7 8 8 8 8 7 7 6 5 3 6 5 7 4 7 4 7 3 3 4 4
6 6 6 6 7 9 8 9 9 8 9 10 9 8 10 7 8 8 9 6 6 9 7 7 8 8 7 8 9 8 7 7 6 3 2 5 2 2 5 2 4 3 3
6 7 7 7 8 10 8 10 7 14 8 12 10 10 11 9 8 7 9 7 9 9 9 9 9 11 10 8 7 7 7 7 4 5 5 4 4 5 5 6 3 4 4
6 8 6 8 8 10 7 11 9 10 7 10 8 11 9 9 10 8 8 12 8 10 10 11 9 12 14 14 11 7 7 10 7 10 4 6 7 7 5 4 3 3 5
8 7 7 8 9 8 8 10 11 9 7 10 9 11 9 11 6 9 13 9 10 9 9 8 11 15 21 13 13 14 11 13 10 9 5 7 7 6 4 5 7 4 5
Wind_Direction
189 190 197 204 212 196 201 205 199 195 196 188 191 192 193 192 190 187 195 197 213 225 231 223 246 229 245 272 278 58 155 152 192 298 262 290 298 292 298 281 268 265 264
189 189 194 196 204 209 210 206 198 198 192 196 187 190 190 195 189 193 201 196 198 214 232 221 249 256 261 232 263 278 265 189 163 274 273 287 257 284 280 302 304 286 276
189 188 192 198 200 210 215 209 205 194 198 191 180 187 189 196 197 200 198 201 203 209 217 215 231 236 258 239 230 255 261 271 221 219 279 269 267 300 318 309 297 304 296
199 192 191 197 204 209 211 202 209 213 192 197 194 194 195 196 200 201 198 204 210 215 216 213 219 214 223 233 228 232 236 237 228 233 260 272 266 292 254 274 308 301 291
196 192 201 197 201 206 209 210 204 209 217 198 198 197 195 199 206 205 205 207 205 222 224 222 221 218 215 215 209 231 224 238 248 256 268 270 274 295 270 272 278 289 288
195 197 193 199 199 203 205 209 207 207 213 198 201 203 201 204 201 195 195 207 215 214 228 228 230 229 233 232 231 227 211 221 240 227 253 255 265 238 248 260 280 310 313
197 202 199 197 205 204 199 202 210 212 213 216 212 205 205 207 197 197 197 205 212 221 226 230 229 238 224 232 243 242 244 244 240 229 243 245 261 242 240 262 257 250 262
203 207 206 200 205 203 202 199 205 208 211 214 218 216 214 212 198 200 201 215 216 222 223 225 226 234 225 214 228 244 248 245 238 232 234 256 253 258 217 264 273 267 272
216 205 203 207 205 201 205 202 202 201 209 212 215 217 216 221 199 202 195 211 224 227 223 225 226 233 230 215 224 241 254 257 248 242 240 239 244 246 246 334 280 285 292
302 271 224 205 212 204 204 201 202 205 208 210 216 215 211 217 199 200 195 212 221 228 228 230 223 228 221 213 221 234 250 257 259 262 262 256 245 254 249 215 244 243 260
319 295 296 234 208 210 205 199 200 206 208 211 215 216 216 210 215 197 197 211 220 224 230 230 231 221 230 218 214 230 236 254 252 240 250 248 252 247 246 217 208 213 214
315 312 297 240 205 203 202 202 200 202 209 212 211 217 218 216 210 201 200 208 215 223 227 233 237 215 219 221 214 236 246 250 265 259 255 256 250 246 242 236 223 214 220
299 287 291 260 215 202 196 198 199 201 207 211 211 215 217 214 217 208 200 206 221 222 230 233 229 219 221 228 232 240 230 222 237 246 250 253 247 249 244 258 248 234 229
305 310 290 264 217 201 195 197 200 202 206 209 210 215 217 215 217 215 208 208 226 220 242 241 235 216 203 220 227 228 210 206 209 227 239 248 248 211 230 231 245 227 217
311 306 309 277 212 206 198 197 201 207 203 203 207 209 208 216 218 210 204 202 211 216 214 235 219 199 222 228 233 228 211 197 211 215 229 236 235 224 232 221 224 219 214
317 313 312 303 248 208 201 201 58 222 201 199 199 204 214 219 198 196 204 201 201 180 175 216 217 226 224 230 234 237 222 221 225 224 223 220 227 222 234 241 199 189 212
310 313 315 300 322 240 209 198 201 75 74 215 211 209 209 196 198 204 210 206 147 135 214 204 216 215 224 227 229 229 239 234 229 223 225 220 221 222 208 233 204 194 220
309 309 302 301 300 297 246 211 197 196 202 201 84 216 222 222 215 154 129 120 132 218 213 214 216 218 218 222 224 227 234 231 217 214 217 215 208 208 207 214 194 208 232
308 306 303 295 300 298 274 242 202 193 209 198 124 87 97 124 138 138 166 180 191 197 212 218 202 196 204 207 228 237 237 232 220 220 209 221 224 205 228 216 192 209 199
301 310 325 307 311 334 307 272 194 201 171 179 207 173 154 165 166 144 121 112 103 81 138 157 105 83 82 105 70 40 38 35 46 52 41 9 338 279 252 227 211 196 207
331 345 339 352 11 358 3 26 10 99 94 80 60 53 199 142 105 97 88 64 62 48 51 58 41 37 358 355 20 144 148 134 123 138 215 41 54 293 284 267 240 234 230
4 354 343 16 5 30 23 19 58 65 83 75 41 63 57 68 88 76 76 78 72 64 48 62 65 44 26 359 1 16 326 321 61 60 305 221 135 113 281 285 275 237 225
14 9 1 19 28 29 44 29 57 53 68 63 62 56 59 67 74 81 74 54 65 74 59 63 69 68 49 40 26 11 358 18 6 341 249 281 9 20 114 66 322 346 329
23 35 19 32 35 41 31 54 38 58 48 73 62 57 58 53 40 65 98 72 58 51 64 62 54 54 53 44 38 8 351 334 328 297 294 312 356 13 0 62 15 358 358
39 45 32 46 41 54 35 47 43 49 42 73 80 80 71 72 69 38 34 71 64 64 45 62 56 42 48 50 34 33 307 353 16 320 359 53 55 46 29 47 354 21 29
43 46 48 51 51 61 52 65 62 43 46 75 68 71 50 48 82 108 65 47 63 60 56 45 49 47 44 29 19 2 8 10 12 350 11 58 59 41 34 36 39 49 51